Flag for Germany Weather past 2 weeks in Waren (Müritz), Mecklenburg-Western Pomerania, Germany

Now
50 °F

Scattered showers. Broken clouds.


Feels Like: 45 °F
Forecast: 38 / 66 °F
Wind: 13 mph from Northwest

Location: Laage


UV Index: 3 (Moderate)

Visibility: N/A


Pressure: 29.80 "Hg

Humidity: 62%

Dew point: 37 °F

Location of Waren (Müritz)Location

Historic Weather in Waren (Müritz)

°F

Waren (Müritz) temperature yesterday

Maximum temperature yesterday: 57 °F (at 3:20 PM)
Minimum temperature yesterday: 36 °F (at 2:20 AM)
Average temperature yesterday: 47 °F

Past Weeks' High & Low Weather Summary

 TemperatureHumidityPressure
High64 °F (Apr 7, 2:20 PM)100% (Apr 5, 12:20 AM)30.45 "Hg (Apr 5, 12:20 AM)
Low30 °F (Apr 16, 5:20 AM)36% (Apr 17, 12:20 PM)29.59 "Hg (Apr 14, 7:20 AM)
Average47 °F77%29.98 "Hg
* Reported Apr 3 1:20 PM — Apr 18 1:20 PM, Waren (Müritz), Weather by CustomWeather, © 2014

Note: Actual official high and low records may vary slightly from our data, if they occured in-between our weather recording intervals... More about our weather records

Advertising

Historic Weather Conditions — Data for Previous 24 hours

 ConditionsComfort  
Time TempWeatherWind HumidityBarometerVisibility
1:20 PM
Apr 18
48 °FScattered clouds.12 mph71%29.77 "HgN/A
12:20 PM46 °FBroken clouds.13 mph82%29.77 "HgN/A
12:04 PM46 °FBroken clouds.13 mph82%29.77 "HgN/A
11:20 AM45 °FSprinkles. Partly sunny.8 mph87%29.74 "HgN/A
10:20 AM43 °FScattered showers. Broken clouds.10 mph87%29.74 "HgN/A
9:20 AM45 °FSprinkles. Partly sunny.10 mph81%29.71 "Hg3 mi
8:20 AM43 °FQuite cool.8 mph87%29.71 "HgN/A
7:20 AM43 °FQuite cool.7 mph87%29.71 "HgN/A
6:20 AM43 °FQuite cool.9 mph87%29.68 "HgN/A
5:20 AM43 °FQuite cool.7 mph93%29.68 "HgN/A
4:20 AM43 °FQuite cool.8 mph93%29.71 "HgN/A
3:20 AM45 °FQuite cool.8 mph87%29.71 "HgN/A
2:20 AM45 °FQuite cool.9 mph93%29.74 "Hg3 mi
1:20 AM45 °FQuite cool.5 mph93%29.74 "Hg3 mi
12:20 AM46 °FCool.3 mph87%29.77 "Hg4 mi
11:20 PM
Apr 17
48 °FCool.8 mph66%29.80 "Hg4 mi
10:20 PM52 °FLight rain. Passing clouds.8 mph47%29.80 "HgN/A
9:20 PM52 °FPassing clouds.9 mph47%29.83 "HgN/A
8:20 PM52 °FBroken clouds.9 mph47%29.86 "HgN/A
6:20 PM55 °FBroken clouds.13 mph41%29.92 "HgN/A
5:20 PM57 °FPartly sunny.14 mph39%29.95 "HgN/A
4:20 PM57 °FBroken clouds.15 mph36%30.01 "HgN/A
3:20 PM57 °FPartly sunny.14 mph36%30.01 "HgN/A
Weather by CustomWeather, © 2014

See weather overview